Hourly Weather Rus

Today, 23 April, Friday

Time Temperature Precipitation Wind Pressure Humidity
00:00 0°C° 0 mm 4 mps 750 mmHg 86%
01:00 0°C° 0 mm 5 mps 750 mmHg 87%
02:00 0°C° 0 mm 4 mps 750 mmHg 87%
03:00 -1°C° 0 mm 4 mps 751 mmHg 88%
04:00 -1°C° 0 mm 4 mps 751 mmHg 88%
05:00 0°C° 0 mm 4 mps 751 mmHg 81%
06:00 +1°C° 0 mm 5 mps 751 mmHg 74%
07:00 +2°C° 0 mm 6 mps 751 mmHg 67%
08:00 +3°C° 0.3 mm 6 mps 752 mmHg 62%
09:00 +4°C° 0.3 mm 6 mps 752 mmHg 57%
10:00 +5°C° 0.3 mm 7 mps 752 mmHg 53%
11:00 +5°C° 0.1 mm 7 mps 752 mmHg 47%
12:00 +5°C° 0.1 mm 7 mps 753 mmHg 41%
13:00 +6°C° 0.1 mm 8 mps 753 mmHg 35%
14:00 +5°C° 0 mm 7 mps 753 mmHg 37%
15:00 +5°C° 0 mm 7 mps 754 mmHg 39%
16:00 +4°C° 0 mm 6 mps 754 mmHg 41%
17:00 +3°C° 0 mm 5 mps 754 mmHg 46%
18:00 +3°C° 0 mm 4 mps 754 mmHg 50%
19:00 +2°C° 0 mm 3 mps 754 mmHg 55%
20:00 +2°C° 0 mm 2 mps 754 mmHg 59%
21:00 +2°C° 0 mm 2 mps 754 mmHg 63%
22:00 +1°C° 0 mm 2 mps 754 mmHg 67%
23:00 +1°C° 0 mm 2 mps 754 mmHg 69%

Tomorrow, 24 April, Saturday

Time Temperature Precipitation Wind Pressure Humidity
00:00 +1°C° 0 mm 2 mps 754 mmHg 71%
01:00 +1°C° 0 mm 2 mps 754 mmHg 73%
02:00 -1°C° 0 mm 2 mps 754 mmHg 75%
03:00 -1°C° 0 mm 2 mps 754 mmHg 77%
04:00 -2°C° 0 mm 2 mps 754 mmHg 79%
05:00 +1°C° 0 mm 2 mps 754 mmHg 71%
06:00 +3°C° 0 mm 2 mps 754 mmHg 63%
07:00 +3°C° 0 mm 3 mps 755 mmHg 56%
08:00 +5°C° 0 mm 3 mps 755 mmHg 49%
09:00 +6°C° 0 mm 4 mps 755 mmHg 42%
10:00 +7°C° 0 mm 5 mps 754 mmHg 34%
11:00 +7°C° 0 mm 5 mps 754 mmHg 36%
12:00 +7°C° 0 mm 5 mps 754 mmHg 38%
13:00 +7°C° 0 mm 5 mps 754 mmHg 40%
14:00 +7°C° 0.1 mm 5 mps 754 mmHg 45%
15:00 +6°C° 0.1 mm 5 mps 754 mmHg 51%
16:00 +5°C° 0.1 mm 5 mps 754 mmHg 57%
17:00 +4°C° 0.1 mm 4 mps 754 mmHg 59%
18:00 +1°C° 0.1 mm 4 mps 755 mmHg 62%
19:00 +1°C° 0.1 mm 3 mps 755 mmHg 65%
20:00 0°C° 0 mm 3 mps 755 mmHg 69%
21:00 -1°C° 0 mm 2 mps 755 mmHg 74%
22:00 -2°C° 0 mm 2 mps 755 mmHg 79%
23:00 -2°C° 0 mm 2 mps 755 mmHg 78%

Day after tomorrow, 25 April, Sunday

Time Temperature Precipitation Wind Pressure Humidity
00:00 -3°C° 0 mm 2 mps 755 mmHg 78%
01:00 -3°C° 0 mm 2 mps 755 mmHg 78%
02:00 -3°C° 0 mm 2 mps 755 mmHg 76%
03:00 -3°C° 0 mm 2 mps 755 mmHg 74%
04:00 -3°C° 0 mm 2 mps 755 mmHg 72%
05:00 -1°C° 0 mm 2 mps 755 mmHg 65%
06:00 +1°C° 0 mm 3 mps 755 mmHg 58%
07:00 +2°C° 0 mm 3 mps 754 mmHg 51%
08:00 +4°C° 0 mm 3 mps 754 mmHg 46%
09:00 +5°C° 0 mm 4 mps 754 mmHg 41%
10:00 +6°C° 0 mm 4 mps 754 mmHg 35%
11:00 +6°C° 0.1 mm 5 mps 754 mmHg 37%
12:00 +6°C° 0.1 mm 5 mps 754 mmHg 39%
13:00 +6°C° 0.1 mm 5 mps 754 mmHg 41%
14:00 +6°C° 0.1 mm 5 mps 754 mmHg 44%
15:00 +4°C° 0.1 mm 6 mps 754 mmHg 48%
16:00 +3°C° 0.1 mm 6 mps 754 mmHg 51%
17:00 +2°C° 0 mm 5 mps 754 mmHg 56%
18:00 0°C° 0 mm 4 mps 754 mmHg 62%
19:00 0°C° 0 mm 3 mps 754 mmHg 67%
20:00 -1°C° 0 mm 2 mps 754 mmHg 72%
21:00 -2°C° 0 mm 2 mps 754 mmHg 76%
22:00 -3°C° 0 mm 2 mps 754 mmHg 80%
23:00 -3°C° 0 mm 2 mps 754 mmHg 79%

26 April, Monday

Time Temperature Precipitation Wind Pressure Humidity
00:00 -3°C° 0 mm 2 mps 754 mmHg 79%
01:00 -3°C° 0 mm 2 mps 754 mmHg 78%
02:00 -3°C° 0 mm 2 mps 753 mmHg 77%
03:00 -3°C° 0 mm 2 mps 753 mmHg 75%
04:00 -3°C° 0 mm 2 mps 753 mmHg 74%
05:00 -1°C° 0 mm 2 mps 753 mmHg 68%
06:00 +1°C° 0 mm 2 mps 753 mmHg 61%
07:00 +2°C° 0 mm 3 mps 752 mmHg 55%
08:00 +3°C° 0.1 mm 3 mps 752 mmHg 50%
09:00 +5°C° 0.1 mm 3 mps 752 mmHg 45%
10:00 +6°C° 0.1 mm 4 mps 752 mmHg 40%
11:00 +6°C° 0.1 mm 4 mps 752 mmHg 41%
12:00 +6°C° 0.1 mm 4 mps 751 mmHg 41%
13:00 +6°C° 0.1 mm 4 mps 751 mmHg 42%
14:00 +6°C° 0.1 mm 4 mps 751 mmHg 44%
15:00 +6°C° 0.1 mm 4 mps 751 mmHg 46%
16:00 +6°C° 0.1 mm 4 mps 751 mmHg 47%
17:00 +4°C° 0 mm 3 mps 751 mmHg 55%
18:00 +3°C° 0 mm 3 mps 751 mmHg 62%
19:00 +2°C° 0 mm 2 mps 751 mmHg 69%
20:00 +1°C° 0 mm 2 mps 751 mmHg 75%
21:00 -1°C° 0 mm 2 mps 751 mmHg 82%
22:00 -2°C° 0 mm 2 mps 751 mmHg 88%
23:00 0°C° 0 mm 1 mps 751 mmHg 87%

27 April, Tuesday

Time Temperature Precipitation Wind Pressure Humidity
00:00 0°C° 0 mm 1 mps 751 mmHg 85%
01:00 0°C° 0 mm 1 mps 751 mmHg 84%
02:00 0°C° 0 mm 1 mps 750 mmHg 83%
03:00 -2°C° 0 mm 2 mps 750 mmHg 81%
04:00 -2°C° 0 mm 2 mps 750 mmHg 80%
05:00 +1°C° 0 mm 2 mps 750 mmHg 71%
06:00 +2°C° 0 mm 2 mps 750 mmHg 63%
07:00 +4°C° 0 mm 2 mps 750 mmHg 55%
08:00 +6°C° 0 mm 2 mps 750 mmHg 50%
09:00 +7°C° 0 mm 2 mps 750 mmHg 46%
10:00 +9°C° 0 mm 2 mps 750 mmHg 42%
11:00 +10°C° 0 mm 2 mps 749 mmHg 41%
12:00 +10°C° 0 mm 2 mps 749 mmHg 39%
13:00 +12°C° 0 mm 1 mps 748 mmHg 38%
14:00 +12°C° 0 mm 1 mps 748 mmHg 40%
15:00 +12°C° 0 mm 1 mps 748 mmHg 42%
16:00 +11°C° 0 mm 1 mps 747 mmHg 44%
17:00 +10°C° 0 mm 1 mps 747 mmHg 51%
18:00 +7°C° 0 mm 2 mps 747 mmHg 58%
19:00 +6°C° 0 mm 2 mps 747 mmHg 66%
20:00 +5°C° 0 mm 2 mps 747 mmHg 67%
21:00 +5°C° 0 mm 2 mps 746 mmHg 69%
22:00 +4°C° 0 mm 2 mps 746 mmHg 71%
23:00 +4°C° 0 mm 2 mps 746 mmHg 72%

28 April, Wednesday

Time Temperature Precipitation Wind Pressure Humidity
00:00 +4°C° 0 mm 2 mps 746 mmHg 72%
01:00 +4°C° 0 mm 2 mps 745 mmHg 72%
02:00 +4°C° 0 mm 2 mps 745 mmHg 72%
03:00 +4°C° 0 mm 2 mps 745 mmHg 72%
04:00 +4°C° 0 mm 2 mps 744 mmHg 72%
05:00 +4°C° 0 mm 3 mps 744 mmHg 70%
06:00 +4°C° 0 mm 3 mps 744 mmHg 67%
07:00 +5°C° 0 mm 3 mps 744 mmHg 64%
08:00 +6°C° 0.1 mm 4 mps 743 mmHg 69%
09:00 +6°C° 0.1 mm 4 mps 743 mmHg 73%
10:00 +7°C° 0.1 mm 4 mps 743 mmHg 77%
11:00 +6°C° 0.3 mm 4 mps 743 mmHg 81%
12:00 +6°C° 0.3 mm 4 mps 743 mmHg 85%
13:00 +5°C° 0.3 mm 4 mps 743 mmHg 89%
14:00 +5°C° 0.1 mm 4 mps 743 mmHg 91%
15:00 +5°C° 0.1 mm 4 mps 743 mmHg 92%
16:00 +5°C° 0.1 mm 3 mps 742 mmHg 93%
17:00 +5°C° 0 mm 3 mps 742 mmHg 94%
18:00 +5°C° 0 mm 3 mps 742 mmHg 94%
19:00 +5°C° 0 mm 2 mps 742 mmHg 95%
20:00 +5°C° 0 mm 2 mps 742 mmHg 94%
21:00 +4°C° 0 mm 3 mps 742 mmHg 94%
22:00 +4°C° 0 mm 3 mps 742 mmHg 94%
23:00 +4°C° 0.2 mm 3 mps 742 mmHg 95%
Show more